Showing default

OPS 9347 (IDSCS 25), 3290

Orbit data source: Space-Track

OPS 9347 (IDSCS 25), 3290 is a payload satellite owned by SAMSO (US) in GEO that was launched on Thu, 13 Jun 1968 UTC via a TITAN IIIC launch vehicle from the Air Force Eastern Test Range (AFETR). Payload-class satellites include a variety of spacecraft equipped with specific instruments for various scientific and technological missions. These include communications satellites like Starlink; space stations such as the ISS; scientific satellites like the Hubble; Earth observation satellites from companies like Planet Labs, Umbra, and HawkEye 360; GPS; miniature CubeSats for education and research; and military/defense satellites.

Loading next visibility...
Identifier
3290, 1968-050G
Orbit
GEO
Country
Flag of USUS
Related business
Manufacturer
Philco-Ford
Mission
Non-operational spacecraft
Bus & Motor
IDCSP, Unknown motor
Mass
45 kg wet, 45 kg dry
Launch date (UTC)
1968-06-13 (58 years ago)
Launch vehicle
TITAN IIIC
Launch site
Air Force Eastern Test Range (AFETR)
Object type
Payload
Rocket body
Debris
Shape & HBR
POLY, 1.1 m
Radar Cross Section
Medium (>0.1 m² and <1 m²)

Expand to show TLE details & history
Last TLE update: 2 days ago

TLE from 2 days ago
0 OPS 9347 (IDSCS 25)
1 03290U 68050G   26252.62388179 -.00000084  00000-0  00000-0 0  9997
2 03290   7.1446  53.2553 0061788 140.5451 212.9845  1.07035008 48031
Epoch: 2026-09-09T14:58Z
TLE epoch observation values (Epoch: 2026-09-09T14:58:23.386Z)
Latitude
-0.87227°
Longitude
-166.82485°
Altitude
34,200.415 km
Speed
3.126 km/s
True Right ascension
03h 05m 47s
True Declination
0° 52' 17"
Sunlit
Object was in daylight at epoch
Visualization orbit readout
Latitude
Unknown
Longitude
Unknown
Altitude
Unknown
Speed
Unknown
Apparent Right ascension
Unknown
Apparent Declination
Unknown
Sunlit
N/A
Visualization observer readout
Local Sidereal Time
02:50:53
Azimuth
Unknown
Elevation
Unknown
Doppler factor
Unknown
Orbital elements
Apogee altitude
34,241.7 km
Perigee altitude
33,742.818 km
Semi-major axis
40,370.396 km
Eccentricity
0.00618
Inclination
7.1446°
RAAN
53.2553°
Arg. of periapsis
140.5451°
True anomaly
212.60152°
Mean anomaly
212.9845°
Eccentric anomaly
212.79276°
Mean motion
0.26758 °/min
Orbital period
1,345.41 mins
BSTAR
0
Loading maneuver chart data...
Computing Atmospheric mass density...
Loading historical data...
Loading historical data...
Loading historical data...
Loading historical data...
Loading historical data...
Loading historical data...
Loading historical data...

Documentation

Showing up to 5 results
|